Location: Knowlton
(51.2333°N, 1.2667°E)
Time: 04:46:56
(UTC+00:00)

Cosmos 1151 Rocket - Pass Details

Date: 18 April 2021
Orbit: 593 x 614 km, 82.5° (Epoch: 06 May)

Event Time Altitude Azimuth Distance (km) Brightness Sun altitude
Exits shadow 23:21:43 37° 47° (NE) 941 4.2 -27.2°
Drops below altitude 10° 23:24:41 10° 20° (NNE) 1,961 6.4 -27.3°
Sets 23:26:58 0° 15° (NNE) 2,873 7.5 -27.3°
